Wetterdaten: aktuell Montag, 30.03.2020 20:30
Datum Zeit Lufttemp. Wassertemp. Feuchte Luftdruck Regen Wind Richtung Richtung Windben
30.03.2020 20:30 7,7 C 0,0 C 85 % 1017,9 hPa 0,0 l/m 0,0 kts (0 Bft) W-NW 303 0,0 kts (0 Bft)
30.03.2020 20:29 7,7 C 0,0 C 85 % 1017,9 hPa 0,0 l/m 0,0 kts (0 Bft) W-NW 303 0,0 kts (0 Bft)
30.03.2020 20:28 7,7 C 0,0 C 85 % 1017,9 hPa 0,0 l/m 0,0 kts (0 Bft) W-NW 303 0,0 kts (0 Bft)
30.03.2020 20:27 7,7 C 0,0 C 85 % 1017,9 hPa 0,0 l/m 0,0 kts (0 Bft) W-NW 303 0,0 kts (0 Bft)
30.03.2020 20:26 7,7 C 0,0 C 85 % 1017,9 hPa 0,0 l/m 0,0 kts (0 Bft) W-NW 303 0,0 kts (0 Bft)
30.03.2020 20:25 7,8 C 0,0 C 85 % 1017,8 hPa 0,0 l/m 0,0 kts (0 Bft) W-NW 303 0,0 kts (0 Bft)
30.03.2020 20:24 7,8 C 0,0 C 85 % 1017,8 hPa 0,0 l/m 0,0 kts (0 Bft) W-NW 303 0,0 kts (0 Bft)
30.03.2020 20:23 7,8 C 0,0 C 85 % 1017,8 hPa 0,0 l/m 0,0 kts (0 Bft) W-NW 303 0,0 kts (0 Bft)
30.03.2020 20:22 7,8 C 0,0 C 85 % 1017,8 hPa 0,0 l/m 0,0 kts (0 Bft) W-NW 303 0,0 kts (0 Bft)
30.03.2020 20:21 7,8 C 0,0 C 85 % 1017,8 hPa 0,0 l/m 0,0 kts (0 Bft) W-NW 303 0,0 kts (0 Bft)
30.03.2020 20:20 7,8 C 0,0 C 85 % 1017,8 hPa 0,0 l/m 0,0 kts (0 Bft) W-NW 303 0,0 kts (0 Bft)
30.03.2020 20:19 7,8 C 0,0 C 85 % 1017,8 hPa 0,0 l/m 0,0 kts (0 Bft) W-NW 303 0,0 kts (0 Bft)
30.03.2020 20:18 7,8 C 0,0 C 85 % 1017,7 hPa 0,0 l/m 0,0 kts (0 Bft) W-NW 303 0,0 kts (0 Bft)
30.03.2020 20:17 7,8 C 0,0 C 85 % 1017,7 hPa 0,0 l/m 0,0 kts (0 Bft) W-NW 303 0,0 kts (0 Bft)
30.03.2020 20:16 7,9 C 0,0 C 86 % 1017,6 hPa 0,0 l/m 0,0 kts (0 Bft) W-NW 303 0,0 kts (0 Bft)
30.03.2020 20:15 7,9 C 0,0 C 86 % 1017,6 hPa 0,0 l/m 0,0 kts (0 Bft) W-NW 303 0,0 kts (0 Bft)
30.03.2020 20:14 7,9 C 0,0 C 86 % 1017,6 hPa 0,0 l/m 0,3 kts (0 Bft) W-NW 303 3,1 kts (2 Bft)
30.03.2020 20:13 8,0 C 0,0 C 87 % 1017,6 hPa 0,0 l/m 0,0 kts (0 Bft) W-NW 303 0,0 kts (0 Bft)
30.03.2020 20:12 8,0 C 0,0 C 87 % 1017,6 hPa 0,0 l/m 0,9 kts (1 Bft) W-NW 303 3,1 kts (2 Bft)
30.03.2020 20:11 8,1 C 0,0 C 87 % 1017,6 hPa 0,0 l/m 1,7 kts (1 Bft) W-NW 303 4,2 kts (2 Bft)
30.03.2020 20:10 8,1 C 0,0 C 88 % 1017,6 hPa 0,0 l/m 0,1 kts (0 Bft) W-NW 303 1,0 kts (1 Bft)
30.03.2020 20:09 8,2 C 0,0 C 88 % 1017,6 hPa 0,0 l/m 0,0 kts (0 Bft) W-NW 303 0,0 kts (0 Bft)
30.03.2020 20:08 8,2 C 0,0 C 88 % 1017,5 hPa 0,0 l/m 0,0 kts (0 Bft) W-NW 303 0,0 kts (0 Bft)
30.03.2020 20:07 8,2 C 0,0 C 88 % 1017,5 hPa 0,0 l/m 0,0 kts (0 Bft) W-NW 303 0,0 kts (0 Bft)
30.03.2020 20:06 8,2 C 0,0 C 87 % 1017,5 hPa 0,0 l/m 0,0 kts (0 Bft) W-NW 303 0,0 kts (0 Bft)
30.03.2020 20:05 8,1 C 0,0 C 85 % 1017,5 hPa 0,0 l/m 0,0 kts (0 Bft) W-NW 303 0,0 kts (0 Bft)
30.03.2020 20:04 8,1 C 0,0 C 84 % 1017,5 hPa 0,0 l/m 0,0 kts (0 Bft) W-NW 303 0,0 kts (0 Bft)
30.03.2020 20:03 8,1 C 0,0 C 84 % 1017,4 hPa 0,0 l/m 0,0 kts (0 Bft) W-NW 303 0,0 kts (0 Bft)
30.03.2020 20:02 8,1 C 0,0 C 84 % 1017,4 hPa 0,0 l/m 0,0 kts (0 Bft) W-NW 303 0,0 kts (0 Bft)
30.03.2020 20:01 8,1 C 0,0 C 84 % 1017,4 hPa 0,0 l/m 0,0 kts (0 Bft) W-NW 302 0,0 kts (0 Bft)
30.03.2020 20:00 8,2 C 0,0 C 84 % 1017,4 hPa 0,0 l/m 0,0 kts (0 Bft) W-NW 302 0,0 kts (0 Bft)
30.03.2020 19:59 8,2 C 0,0 C 84 % 1017,4 hPa 0,0 l/m 0,0 kts (0 Bft) W-NW 302 0,0 kts (0 Bft)
30.03.2020 19:58 8,2 C 0,0 C 83 % 1017,4 hPa 0,0 l/m 0,0 kts (0 Bft) W-NW 302 0,0 kts (0 Bft)
30.03.2020 19:57 8,2 C 0,0 C 83 % 1017,3 hPa 0,0 l/m 0,0 kts (0 Bft) W-NW 302 0,0 kts (0 Bft)
30.03.2020 19:56 8,2 C 0,0 C 83 % 1017,3 hPa 0,0 l/m 0,0 kts (0 Bft) W-NW 303 0,0 kts (0 Bft)
30.03.2020 19:55 8,2 C 0,0 C 82 % 1017,3 hPa 0,0 l/m 0,0 kts (0 Bft) W-NW 302 0,0 kts (0 Bft)
30.03.2020 19:54 8,2 C 0,0 C 80 % 1017,3 hPa 0,0 l/m 0,2 kts (0 Bft) W-NW 302 1,0 kts (1 Bft)
30.03.2020 19:53 8,1 C 0,0 C 79 % 1017,2 hPa 0,0 l/m 0,0 kts (0 Bft) W-NW 302 0,0 kts (0 Bft)
30.03.2020 19:52 8,1 C 0,0 C 79 % 1017,2 hPa 0,0 l/m 0,0 kts (0 Bft) W-NW 302 0,0 kts (0 Bft)
30.03.2020 19:51 8,1 C 0,0 C 78 % 1017,2 hPa 0,0 l/m 0,0 kts (0 Bft) W-NW 302 0,0 kts (0 Bft)
30.03.2020 19:50 8,1 C 0,0 C 79 % 1017,3 hPa 0,0 l/m 3,0 kts (2 Bft) W-NW 302 5,2 kts (2 Bft)
30.03.2020 19:49 8,1 C 0,0 C 79 % 1017,3 hPa 0,0 l/m 1,9 kts (1 Bft) W-NW 302 4,2 kts (2 Bft)
30.03.2020 19:48 8,2 C 0,0 C 80 % 1017,2 hPa 0,0 l/m 1,8 kts (1 Bft) W-NW 302 5,2 kts (2 Bft)
30.03.2020 19:47 8,2 C 0,0 C 80 % 1017,2 hPa 0,0 l/m 0,4 kts (0 Bft) W-NW 302 3,1 kts (2 Bft)
30.03.2020 19:46 8,2 C 0,0 C 80 % 1017,2 hPa 0,2 l/m 1,0 kts (1 Bft) W-NW 302 3,1 kts (2 Bft)
30.03.2020 19:45 8,3 C 0,0 C 80 % 1017,2 hPa 0,0 l/m 0,0 kts (0 Bft) W-NW 302 0,0 kts (0 Bft)
30.03.2020 19:44 8,3 C 0,0 C 80 % 1017,2 hPa 0,0 l/m 0,0 kts (0 Bft) W-NW 302 0,0 kts (0 Bft)
30.03.2020 19:43 8,3 C 0,0 C 80 % 1017,1 hPa 0,0 l/m 0,0 kts (0 Bft) W-NW 302 0,0 kts (0 Bft)
30.03.2020 19:42 8,3 C 0,0 C 80 % 1017,1 hPa 0,0 l/m 0,0 kts (0 Bft) W-NW 302 0,0 kts (0 Bft)
30.03.2020 19:41 8,3 C 0,0 C 79 % 1017,0 hPa 0,0 l/m 0,0 kts (0 Bft) W-NW 302 0,0 kts (0 Bft)
30.03.2020 19:40 8,3 C 0,0 C 79 % 1017,0 hPa 0,0 l/m 0,0 kts (0 Bft) W-NW 302 0,0 kts (0 Bft)
30.03.2020 19:39 8,3 C 0,0 C 79 % 1017,0 hPa 0,0 l/m 0,0 kts (0 Bft) W-NW 302 0,0 kts (0 Bft)
30.03.2020 19:38 8,3 C 0,0 C 80 % 1017,0 hPa 0,0 l/m 0,0 kts (0 Bft) W-NW 302 0,0 kts (0 Bft)
30.03.2020 19:37 8,4 C 0,0 C 80 % 1017,0 hPa 0,0 l/m 0,0 kts (0 Bft) W-NW 302 0,0 kts (0 Bft)
30.03.2020 19:36 8,4 C 0,0 C 80 % 1017,0 hPa 0,0 l/m 0,0 kts (0 Bft) W-NW 302 0,0 kts (0 Bft)
30.03.2020 19:35 8,4 C 0,0 C 80 % 1016,9 hPa 0,0 l/m 0,0 kts (0 Bft) W-NW 302 0,0 kts (0 Bft)
30.03.2020 19:34 8,3 C 0,0 C 80 % 1016,9 hPa 0,0 l/m 0,0 kts (0 Bft) W-NW 302 0,0 kts (0 Bft)
30.03.2020 19:33 8,4 C 0,0 C 80 % 1016,9 hPa 0,0 l/m 0,0 kts (0 Bft) W-NW 302 0,0 kts (0 Bft)
30.03.2020 19:32 8,4 C 0,0 C 81 % 1016,9 hPa 0,0 l/m 0,0 kts (0 Bft) W-NW 302 0,0 kts (0 Bft)
30.03.2020 19:31 8,4 C 0,0 C 81 % 1016,9 hPa 0,0 l/m 0,0 kts (0 Bft) W-NW 302 0,0 kts (0 Bft)
30.03.2020 19:30 8,4 C 0,0 C 81 % 1016,8 hPa 0,0 l/m 0,0 kts (0 Bft) W-NW 302 0,0 kts (0 Bft)
_ Min-Zeit 08:59 00:00 15:48 00:00 - 00:00 - - 00:00
Minimum _ 7,2 C 0,0 C 68 % 1014,3 hPa - 0,0 kts (0 Bft) - - 0,0 kts (0 Bft)
_ Max-Zeit 00:13 00:00 06:00 10:57 00:01 14:47 - - 00:03
Maximum _ 10,1 C 0,0 C 96 % 1017,9 hPa 2,4 l/m 6,0 kts
NW (2 Bft)
- - 9,4 kts
N (3 Bft)
Durchschnitt _ 8,4 C 0,0 C 85 % 1016,3 hPa #10,2 l/m 0,7 kts (1 Bft) N-NO - 1,8 kts (1 Bft)